Location: Bailen
(14.1842°N, 120.7958°E)
Time: 17:30:37
(UTC+00:00)

Cosmos 1703 - Pass Details

Date: 12 January 2026
Orbit: 413 x 424 km, 82.5° (Epoch: 17 February)

Event Time Altitude Azimuth Distance (km) Brightness Sun altitude
Rises 21:28:08 0° 359° (N) 2,355 6.3 -13.6°
Reaches altitude 10° 21:30:10 10° 1° (N) 1,488 5.4 -13.2°
Maximum altitude 21:33:23 69° 85° (E) 446 3.0 -12.4°
Drops below altitude 10° 21:36:34 10° 169° (S) 1,478 5.9 -11.7°
Sets 21:38:36 0° 172° (S) 2,338 6.9 -11.2°
